.
WxDataArchive / Data Records for 2011-11-08
2011-11-07 November 2011 2011-11-09

Data Records for Tuesday, 08 November 2011

Time	Temp	Chill	HIndex	Humid	Dewpt	 Wind 	HiWind	WindDir	Rain 	Barom 
-----	----	-----	------	-----	-----	------	------	-------	-----	----- 
00:00	53.5	53.5	53.5	96	52.4	0	1	248	0.00	30.190 
00:05	53.3	53.3	53.3	96	52.2	0	1	248	0.00	30.190 
00:10	53.3	53.3	53.3	96	52.2	0	1	248	0.00	30.190 
00:15	53.3	53.3	53.3	96	52.2	0	0	---	0.00	30.191 
00:20	53.3	53.3	53.3	96	52.2	0	1	248	0.00	30.191 
00:25	53.3	53.3	53.3	96	52.2	0	1	248	0.00	30.191 
00:30	53.5	53.5	53.5	96	52.4	0	2	248	0.00	30.185 
00:35	53.3	53.3	53.3	96	52.2	0	1	248	0.00	30.185 
00:40	53.3	53.3	53.3	96	52.2	0	1	248	0.00	30.185 
00:45	53.3	53.3	53.3	97	52.5	0	2	248	0.00	30.176 
00:50	53.3	53.3	53.3	96	52.2	0	2	248	0.00	30.176 
00:55	53.3	53.3	53.3	96	52.2	1	2	248	0.00	30.176 
01:00	53.3	53.3	53.3	97	52.5	0	1	248	0.00	30.171 
01:05	53.3	53.3	53.3	97	52.5	1	3	248	0.00	30.171 
01:10	53.5	53.5	53.5	97	52.7	0	1	225	0.00	30.171 
01:15	53.5	53.5	53.5	97	52.7	0	1	225	0.00	30.158 
01:20	53.5	53.5	53.5	97	52.7	0	2	225	0.00	30.158 
01:25	53.5	53.5	53.5	97	52.7	1	2	225	0.00	30.158 
01:30	53.5	53.5	53.5	97	52.7	1	3	225	0.00	30.153 
01:35	53.5	53.5	53.5	97	52.7	1	2	68	0.00	30.153 
01:40	53.5	53.5	53.5	97	52.7	1	3	68	0.00	30.153 
01:45	53.5	53.5	53.5	97	52.7	1	3	68	0.00	30.150 
01:50	53.5	53.5	53.5	97	52.7	0	2	68	0.00	30.150 
01:55	53.5	53.5	53.5	97	52.7	0	1	68	0.00	30.150 
02:00	53.5	53.5	53.5	97	52.7	0	2	68	0.00	30.149 
02:05	53.5	53.5	53.5	97	52.7	0	2	68	0.00	30.149 
02:10	53.5	53.5	53.5	97	52.7	0	2	68	0.00	30.149 
02:15	53.5	53.5	53.5	97	52.7	1	3	68	0.00	30.144 
02:20	53.5	53.5	53.5	97	52.7	0	2	68	0.00	30.144 
02:25	53.5	53.5	53.5	97	52.7	0	3	68	0.00	30.144 
02:30	53.5	53.5	53.5	97	52.7	0	1	68	0.00	30.152 
02:35	53.5	53.5	53.5	97	52.7	0	2	68	0.00	30.152 
02:40	53.5	53.5	53.5	97	52.7	0	1	68	0.00	30.152 
02:45	53.5	53.5	53.5	97	52.7	0	2	68	0.00	30.152 
02:50	53.5	53.5	53.5	97	52.7	1	3	68	0.00	30.152 
02:55	53.5	53.5	53.5	97	52.7	0	2	68	0.00	30.152 
03:00	53.5	53.5	53.5	97	52.7	0	0	---	0.00	30.148 
03:05	53.5	53.5	53.5	97	52.7	0	1	68	0.00	30.148 
03:10	53.5	53.5	53.5	97	52.7	0	1	68	0.00	30.148 
03:15	53.5	53.5	53.5	97	52.7	0	2	68	0.00	30.142 
03:20	53.5	53.5	53.5	97	52.7	0	2	68	0.00	30.142 
03:25	53.5	53.5	53.5	97	52.7	0	1	68	0.00	30.142 
03:30	53.5	53.5	53.5	97	52.7	1	3	68	0.00	30.139 
03:35	53.5	53.5	53.5	97	52.7	1	3	68	0.00	30.139 
03:40	53.3	53.3	53.3	97	52.5	0	2	68	0.00	30.139 
03:45	53.3	53.3	53.3	97	52.5	0	2	68	0.00	30.135 
03:50	53.3	53.3	53.3	97	52.5	0	2	68	0.00	30.135 
03:55	53.3	53.3	53.3	97	52.5	1	3	68	0.00	30.135 
04:00	53.3	53.3	53.3	97	52.5	1	2	68	0.00	30.131 
04:05	53.3	53.3	53.3	97	52.5	0	2	68	0.00	30.131 
04:10	53.3	53.3	53.3	97	52.5	1	2	68	0.00	30.131 
04:15	53.3	53.3	53.3	97	52.5	0	2	68	0.00	30.128 
04:20	53.3	53.3	53.3	97	52.5	0	2	68	0.00	30.128 
04:25	53.3	53.3	53.3	97	52.5	0	2	68	0.00	30.128 
04:30	53.3	53.3	53.3	97	52.5	0	2	68	0.00	30.124 
04:35	53.3	53.3	53.3	97	52.5	0	1	68	0.00	30.124 
04:40	53.3	53.3	53.3	97	52.5	0	1	68	0.00	30.124 
04:45	53.2	53.2	53.2	97	52.4	0	1	68	0.00	30.127 
04:50	53.2	53.2	53.2	97	52.4	0	1	68	0.00	30.127 
04:55	53.2	53.2	53.2	97	52.4	0	1	68	0.00	30.127 
05:00	53.2	53.2	53.2	97	52.4	0	1	68	0.00	30.124 
05:05	53.2	53.2	53.2	97	52.4	0	1	68	0.00	30.124 
05:10	53.2	53.2	53.2	97	52.4	0	2	68	0.00	30.124 
05:15	53.2	53.2	53.2	97	52.4	0	0	---	0.00	30.124 
05:20	53.2	53.2	53.2	97	52.4	0	2	68	0.00	30.124 
05:25	53.2	53.2	53.2	97	52.4	0	1	68	0.00	30.124 
05:30	53.2	53.2	53.2	97	52.4	0	1	68	0.00	30.120 
05:35	53.2	53.2	53.2	97	52.4	0	1	68	0.00	30.120 
05:40	53.1	53.1	53.1	97	52.3	0	2	68	0.00	30.120 
05:45	53.1	53.1	53.1	97	52.3	0	2	68	0.00	30.118 
05:50	53.1	53.1	53.1	97	52.3	0	2	68	0.00	30.118 
05:55	53.1	53.1	53.1	97	52.3	0	1	68	0.00	30.118 
06:00	53.1	53.1	53.1	97	52.3	0	2	68	0.00	30.116 
06:05	53.1	53.1	53.1	97	52.3	0	0	---	0.00	30.116 
06:10	53.1	53.1	53.1	97	52.3	0	0	---	0.00	30.116 
06:15	53.1	53.1	53.1	97	52.3	0	0	---	0.00	30.111 
06:20	53.1	53.1	53.1	97	52.3	0	0	---	0.00	30.111 
06:25	53.1	53.1	53.1	97	52.3	0	0	---	0.01	30.111 
06:30	53.1	53.1	53.1	97	52.3	0	0	---	0.00	30.110 
06:35	53.1	53.1	53.1	97	52.3	0	0	---	0.00	30.110 
06:40	53.1	53.1	53.1	97	52.3	0	0	---	0.00	30.110 
06:45	52.9	52.9	52.9	97	52.1	0	0	---	0.00	30.108 
06:50	52.9	52.9	52.9	97	52.1	0	0	---	0.00	30.108 
06:55	52.9	52.9	52.9	97	52.1	0	0	---	0.00	30.108 
07:00	52.9	52.9	52.9	97	52.1	0	0	---	0.00	30.109 
07:05	52.9	52.9	52.9	97	52.1	0	0	---	0.00	30.109 
07:10	52.9	52.9	52.9	97	52.1	0	0	---	0.00	30.109 
07:15	52.9	52.9	52.9	97	52.1	0	0	---	0.00	30.103 
07:20	52.9	52.9	52.9	97	52.1	0	1	68	0.00	30.103 
07:25	52.9	52.9	52.9	97	52.1	0	0	---	0.00	30.103 
07:30	52.8	52.8	52.8	97	52.0	0	1	68	0.00	30.102 
07:35	52.8	52.8	52.8	97	52.0	0	1	68	0.00	30.102 
07:40	52.8	52.8	52.8	97	52.0	0	1	68	0.00	30.102 
07:45	52.8	52.8	52.8	97	52.0	0	2	68	0.00	30.106 
07:50	52.8	52.8	52.8	97	52.0	0	1	68	0.00	30.106 
07:55	52.8	52.8	52.8	97	52.0	0	2	68	0.00	30.106 
08:00	52.9	52.9	52.9	97	52.1	0	1	68	0.00	30.102 
08:05	53.2	53.2	53.2	97	52.4	0	1	68	0.00	30.102 
08:10	53.5	53.5	53.5	97	52.7	0	1	68	0.00	30.102 
08:15	53.6	53.6	53.6	97	52.8	0	1	68	0.00	30.105 
08:20	53.9	53.9	53.9	96	52.8	0	1	68	0.00	30.105 
08:25	54.2	54.2	54.2	96	53.1	0	1	68	0.00	30.105 
08:30	54.4	54.4	54.4	96	53.3	0	1	68	0.00	30.106 
08:35	54.7	54.7	54.7	95	53.3	0	1	68	0.00	30.106 
08:40	54.8	54.8	54.8	95	53.4	1	5	68	0.00	30.106 
08:45	55.1	55.1	55.1	93	53.1	0	3	45	0.00	30.105 
08:50	55.3	55.3	55.3	92	53.0	0	3	68	0.00	30.105 
08:55	55.6	55.6	55.6	91	53.0	0	2	68	0.00	30.105 
09:00	55.9	55.9	55.9	90	53.0	0	2	68	0.00	30.093 
09:05	56.2	56.2	56.2	88	52.7	1	5	202	0.00	30.093 
09:10	56.6	56.6	56.6	86	52.5	0	5	90	0.00	30.093 
09:15	56.9	56.9	56.9	84	52.1	0	2	90	0.00	30.093 
09:20	56.9	56.9	56.9	83	51.8	1	4	270	0.00	30.093 
09:25	57.2	57.2	57.2	82	51.8	1	3	90	0.00	30.093 
09:30	57.3	57.3	57.3	81	51.5	1	5	0	0.00	30.098 
09:35	57.6	57.6	57.6	81	51.8	0	4	270	0.00	30.098 
09:40	57.8	57.8	57.8	80	51.7	0	1	270	0.00	30.098 
09:45	58.0	58.0	58.0	80	51.9	0	2	270	0.00	30.096 
09:50	58.1	58.1	58.1	80	52.0	0	3	292	0.00	30.096 
09:55	58.4	58.4	58.4	79	51.9	1	5	45	0.00	30.096 
10:00	58.9	58.9	58.9	78	52.0	1	5	248	0.00	30.094 
10:05	59.2	59.2	59.2	76	51.6	1	4	270	0.00	30.094 
10:10	59.6	59.6	59.6	76	52.0	1	4	248	0.00	30.094 
10:15	59.9	59.9	59.9	75	52.0	1	3	248	0.00	30.087 
10:20	60.2	60.2	60.2	74	51.9	1	5	248	0.00	30.087 
10:25	60.5	60.5	60.5	73	51.8	1	4	292	0.00	30.087 
10:30	60.9	60.9	60.9	74	52.6	0	2	270	0.00	30.087 
10:35	61.2	61.2	61.2	72	52.1	1	3	270	0.00	30.087 
10:40	61.5	61.5	61.5	72	52.4	1	3	292	0.00	30.087 
10:45	62.0	62.0	62.0	72	52.9	0	3	248	0.00	30.086 
10:50	62.6	62.6	62.6	69	52.3	1	3	248	0.00	30.086 
10:55	62.9	62.9	62.9	68	52.2	1	4	248	0.00	30.086 
11:00	63.1	63.1	63.1	67	52.0	2	5	270	0.00	30.084 
11:05	63.1	63.1	63.1	66	51.6	2	6	248	0.00	30.084 
11:10	63.2	63.2	63.2	66	51.6	2	5	248	0.00	30.084 
11:15	63.5	63.5	63.5	66	51.9	2	5	248	0.00	30.083 
11:20	63.7	63.7	63.7	65	51.7	3	9	248	0.00	30.083 
11:25	63.7	63.7	63.7	65	51.7	2	6	270	0.00	30.083 
11:30	63.9	63.9	63.9	66	52.3	1	4	270	0.00	30.076 
11:35	63.9	63.9	63.9	65	51.9	2	7	248	0.00	30.076 
11:40	63.9	63.9	63.9	66	52.3	1	6	248	0.00	30.076 
11:45	64.0	64.0	64.0	65	52.0	1	5	0	0.00	30.068 
11:50	64.5	64.5	64.5	64	52.0	2	5	248	0.00	30.068 
11:55	65.2	65.2	65.2	64	52.7	2	5	248	0.00	30.068 
12:00	65.3	65.3	65.3	59	50.6	4	10	270	0.00	30.063 
12:05	65.5	65.5	65.5	59	50.8	3	7	270	0.00	30.063 
12:10	65.5	65.5	65.5	60	51.2	2	7	248	0.00	30.063 
12:15	65.3	65.3	65.3	60	51.1	1	4	248	0.00	30.053 
12:20	64.8	64.8	64.8	59	50.1	2	6	270	0.00	30.053 
12:25	64.5	64.5	64.5	60	50.3	2	7	248	0.00	30.053 
12:30	64.5	64.5	64.5	61	50.7	1	5	0	0.00	30.043 
12:35	64.7	64.7	64.7	62	51.4	1	6	112	0.00	30.043 
12:40	64.7	64.7	64.7	60	50.5	1	4	270	0.00	30.043 
12:45	64.8	64.8	64.8	61	51.0	2	7	90	0.00	30.036 
12:50	65.0	65.0	65.0	60	50.8	1	4	248	0.00	30.036 
12:55	65.3	65.3	65.3	60	51.1	1	5	68	0.00	30.036 
13:00	65.6	65.6	65.6	58	50.4	2	6	90	0.00	30.031 
13:05	65.8	65.8	65.8	59	51.1	2	5	270	0.00	30.031 
13:10	66.0	66.0	66.0	59	51.3	1	3	270	0.00	30.031 
13:15	66.6	66.6	66.6	57	50.9	2	12	270	0.00	30.019 
13:20	67.1	67.1	67.1	55	50.4	2	10	270	0.00	30.019 
13:25	67.3	67.3	67.3	54	50.1	3	10	270	0.00	30.019 
13:30	67.1	67.1	67.1	54	49.9	3	7	90	0.00	30.013 
13:35	67.1	67.1	67.1	55	50.4	3	7	270	0.00	30.013 
13:40	67.3	67.3	67.3	55	50.6	2	7	270	0.00	30.013 
13:45	67.1	67.1	67.1	54	49.9	2	5	248	0.00	30.005 
13:50	66.9	66.9	66.9	54	49.7	2	5	248	0.00	30.005 
13:55	66.8	66.8	66.8	55	50.1	1	4	270	0.00	30.005 
14:00	66.9	66.9	66.9	56	50.7	1	5	270	0.00	30.003 
14:05	67.1	67.1	67.1	55	50.4	2	6	315	0.00	30.003 
14:10	67.1	67.1	67.1	55	50.4	1	6	90	0.00	30.003 
14:15	67.1	67.1	67.1	55	50.4	2	7	338	0.00	30.001 
14:20	66.9	66.9	66.9	55	50.2	1	5	248	0.00	30.001 
14:25	66.9	66.9	66.9	56	50.7	1	6	90	0.00	30.001 
14:30	66.9	66.9	66.9	56	50.7	1	4	315	0.00	29.989 
14:35	66.8	66.8	66.8	56	50.6	1	5	0	0.00	29.989 
14:40	66.9	66.9	66.9	55	50.2	2	7	22	0.00	29.989 
14:45	67.1	67.1	67.1	56	50.9	1	2	0	0.00	29.986 
14:50	67.1	67.1	67.1	55	50.4	2	6	90	0.00	29.986 
14:55	67.4	67.4	67.4	55	50.7	1	6	68	0.00	29.986 
15:00	67.8	67.8	67.8	55	51.0	1	4	112	0.00	29.976 
15:05	67.8	67.8	67.8	55	51.0	1	4	292	0.00	29.976 
15:10	67.8	67.8	67.8	55	51.0	1	3	338	0.00	29.976 
15:15	67.8	67.8	67.8	54	50.5	2	4	292	0.00	29.972 
15:20	67.6	67.6	67.6	54	50.4	1	9	248	0.00	29.972 
15:25	67.4	67.4	67.4	54	50.2	2	8	270	0.00	29.972 
15:30	67.3	67.3	67.3	55	50.6	1	3	270	0.00	29.973 
15:35	67.3	67.3	67.3	56	51.1	0	3	158	0.00	29.973 
15:40	67.1	67.1	67.1	55	50.4	2	9	248	0.00	29.973 
15:45	66.9	66.9	66.9	56	50.7	0	3	248	0.00	29.974 
15:50	66.9	66.9	66.9	56	50.7	1	3	112	0.00	29.974 
15:55	66.8	66.8	66.8	56	50.6	0	2	112	0.00	29.974 
16:00	66.8	66.8	66.8	56	50.6	1	4	270	0.00	29.984 
16:05	66.6	66.6	66.6	56	50.4	1	3	270	0.00	29.984 
16:10	66.6	66.6	66.6	57	50.9	0	2	270	0.00	29.984 
16:15	66.4	66.4	66.4	57	50.7	0	3	292	0.00	29.987 
16:20	66.4	66.4	66.4	57	50.7	0	3	248	0.00	29.987 
16:25	66.3	66.3	66.3	58	51.1	0	1	248	0.00	29.987 
16:30	66.1	66.1	66.1	58	50.9	0	1	248	0.00	29.989 
16:35	66.0	66.0	66.0	58	50.8	0	1	248	0.00	29.989 
16:40	66.0	66.0	66.0	58	50.8	0	3	248	0.00	29.989 
16:45	65.8	65.8	65.8	58	50.6	1	2	270	0.00	29.984 
16:50	66.0	66.0	66.0	58	50.8	2	4	90	0.00	29.984 
16:55	66.1	66.1	66.1	58	50.9	1	4	68	0.00	29.984 
17:00	66.1	66.1	66.1	58	50.9	1	3	270	0.00	29.977 
17:05	66.1	66.1	66.1	58	50.9	1	3	112	0.00	29.977 
17:10	66.0	66.0	66.0	58	50.8	1	4	338	0.00	29.977 
17:15	66.0	66.0	66.0	58	50.8	1	2	45	0.00	29.974 
17:20	66.0	66.0	66.0	58	50.8	1	3	112	0.00	29.974 
17:25	65.8	65.8	65.8	59	51.1	0	2	45	0.00	29.974 
17:30	65.8	65.8	65.8	59	51.1	1	4	45	0.00	29.977 
17:35	65.8	65.8	65.8	59	51.1	1	6	112	0.00	29.977 
17:40	65.6	65.6	65.6	59	50.9	1	4	112	0.00	29.977 
17:45	65.6	65.6	65.6	59	50.9	1	4	68	0.00	29.981 
17:50	65.6	65.6	65.6	59	50.9	2	6	90	0.00	29.981 
17:55	65.6	65.6	65.6	59	50.9	1	3	68	0.00	29.981 
18:00	65.6	65.6	65.6	59	50.9	1	4	315	0.00	29.987 
18:05	65.5	65.5	65.5	60	51.2	1	3	90	0.00	29.987 
18:10	65.3	65.3	65.3	60	51.1	1	4	90	0.00	29.987 
18:15	65.3	65.3	65.3	60	51.1	1	3	338	0.00	29.989 
18:20	65.3	65.3	65.3	60	51.1	0	3	90	0.00	29.989 
18:25	65.2	65.2	65.2	61	51.4	0	2	90	0.00	29.989 
18:30	65.2	65.2	65.2	61	51.4	0	2	90	0.00	29.990 
18:35	65.0	65.0	65.0	61	51.2	1	3	68	0.00	29.990 
18:40	65.0	65.0	65.0	61	51.2	0	1	68	0.00	29.990 
18:45	65.0	65.0	65.0	61	51.2	0	2	68	0.00	29.992 
18:50	65.0	65.0	65.0	61	51.2	0	3	45	0.00	29.992 
18:55	64.8	64.8	64.8	61	51.0	0	2	248	0.00	29.992 
19:00	64.8	64.8	64.8	61	51.0	0	2	248	0.00	29.992 
19:05	64.7	64.7	64.7	62	51.4	0	2	270	0.00	29.992 
19:10	64.7	64.7	64.7	62	51.4	0	5	315	0.00	29.992 
19:15	64.7	64.7	64.7	61	50.9	1	3	68	0.00	29.997 
19:20	64.7	64.7	64.7	61	50.9	1	3	68	0.00	29.997 
19:25	64.7	64.7	64.7	62	51.4	0	2	270	0.00	29.997 
19:30	64.7	64.7	64.7	62	51.4	1	3	270	0.00	30.004 
19:35	64.7	64.7	64.7	62	51.4	1	2	315	0.00	30.004 
19:40	64.7	64.7	64.7	62	51.4	1	4	248	0.00	30.004 
19:45	64.7	64.7	64.7	61	50.9	1	4	248	0.00	30.001 
19:50	64.7	64.7	64.7	62	51.4	1	3	248	0.00	30.001 
19:55	64.7	64.7	64.7	61	50.9	1	3	270	0.00	30.001 
20:00	64.7	64.7	64.7	61	50.9	1	4	225	0.00	29.996 
20:05	64.7	64.7	64.7	62	51.4	0	1	248	0.00	29.996 
20:10	64.7	64.7	64.7	62	51.4	0	1	248	0.00	29.996 
20:15	64.5	64.5	64.5	62	51.2	0	1	248	0.00	29.996 
20:20	64.3	64.3	64.3	63	51.4	0	1	248	0.00	29.996 
20:25	64.2	64.2	64.2	63	51.3	0	1	248	0.00	29.996 
20:30	63.9	63.9	63.9	64	51.5	0	0	---	0.00	29.990 
20:35	63.7	63.7	63.7	64	51.3	0	0	---	0.00	29.990 
20:40	63.5	63.5	63.5	65	51.5	0	0	---	0.00	29.990 
20:45	63.2	63.2	63.2	66	51.6	0	0	---	0.00	29.992 
20:50	63.1	63.1	63.1	66	51.6	0	0	---	0.00	29.992 
20:55	62.9	62.9	62.9	66	51.4	0	0	---	0.00	29.992 
21:00	62.6	62.6	62.6	68	51.9	0	0	---	0.00	29.989 
21:05	62.4	62.4	62.4	68	51.7	0	0	---	0.00	29.989 
21:10	62.1	62.1	62.1	69	51.8	0	0	---	0.00	29.989 
21:15	62.0	62.0	62.0	69	51.7	0	0	---	0.00	29.989 
21:20	61.8	61.8	61.8	69	51.5	0	0	---	0.00	29.989 
21:25	61.6	61.6	61.6	70	51.7	0	0	---	0.00	29.989 
21:30	61.5	61.5	61.5	72	52.4	0	0	---	0.00	29.988 
21:35	61.3	61.3	61.3	73	52.6	0	0	---	0.00	29.988 
21:40	61.2	61.2	61.2	73	52.5	0	0	---	0.00	29.988 
21:45	60.9	60.9	60.9	74	52.6	0	1	248	0.00	29.978 
21:50	60.7	60.7	60.7	74	52.4	0	0	---	0.00	29.978 
21:55	60.7	60.7	60.7	73	52.0	0	0	---	0.00	29.978 
22:00	60.7	60.7	60.7	73	52.0	0	0	---	0.00	29.973 
22:05	60.7	60.7	60.7	73	52.0	0	0	---	0.00	29.973 
22:10	60.7	60.7	60.7	72	51.6	0	1	248	0.00	29.973 
22:15	60.9	60.9	60.9	71	51.4	1	3	248	0.00	29.962 
22:20	61.0	61.0	61.0	69	50.8	0	3	112	0.00	29.962 
22:25	61.3	61.3	61.3	69	51.0	0	2	112	0.00	29.962 
22:30	61.3	61.3	61.3	69	51.0	0	2	112	0.00	29.956 
22:35	61.3	61.3	61.3	69	51.0	1	3	112	0.00	29.956 
22:40	61.3	61.3	61.3	68	50.6	1	3	68	0.00	29.956 
22:45	61.3	61.3	61.3	68	50.6	1	4	68	0.00	29.955 
22:50	61.3	61.3	61.3	68	50.6	0	2	68	0.00	29.955 
22:55	61.2	61.2	61.2	68	50.5	0	2	68	0.00	29.955 
23:00	61.2	61.2	61.2	68	50.5	0	2	270	0.00	29.960 
23:05	61.2	61.2	61.2	68	50.5	0	1	270	0.00	29.960 
23:10	61.3	61.3	61.3	67	50.2	0	3	315	0.00	29.960 
23:15	61.5	61.5	61.5	67	50.4	0	2	68	0.00	29.951 
23:20	61.6	61.6	61.6	67	50.5	0	2	68	0.00	29.951 
23:25	61.8	61.8	61.8	66	50.3	0	3	68	0.00	29.951 
23:30	61.8	61.8	61.8	66	50.3	1	4	68	0.00	29.950 
23:35	62.0	62.0	62.0	65	50.1	0	4	135	0.00	29.950 
23:40	62.0	62.0	62.0	65	50.1	1	4	112	0.00	29.950 
23:45	62.1	62.1	62.1	65	50.2	1	4	90	0.00	29.943 
23:50	62.1	62.1	62.1	64	49.8	1	6	68	0.00	29.943 
23:55	62.1	62.1	62.1	65	50.2	0	3	68	0.00	29.943 

CoCoRaHS
IN-AL-39
A2 Web Hosting
Creative Commons License
GoDaddy
search engine by freefind advanced

loaded 2018-11-15 05:36:08 • last modified 2010-11-18 10:43:29
Privacy PolicyDisclaimer
• wx.awcolley.com is powered by PmWiki v.2002016 •
• all content (unless otherwise noted) © 2018 A W Colley